Location: Newark
(32.9900°N, 111.5400°W)
Time: 00:16:29
(UTC+00:00)

Envisat - Pass Details

Date: 21 November 2019
Orbit: 764 x 766 km, 98.1° (Epoch: 10 December)

Event Time Altitude Azimuth Distance (km) Brightness Sun altitude
Rises 02:35:58 0° 203° (SSW) 3,217 6.6 -27.9°
Reaches altitude 10° 02:38:54 10° 221° (SW) 2,295 6.0 -28.5°
Maximum altitude 02:42:27 19° 266° (W) 1,757 5.6 -29.2°
Drops below altitude 10° 02:46:01 10° 311° (NW) 2,305 6.0 -30.0°
Sets 02:48:59 0° 328° (NNW) 3,235 6.6 -30.6°
